This demonstration page uses our WeatherBlox Daily Observations layout. Learn more.

Left ArrowRight Arrow

Hourly Observations for January 9, 2017

Temp ( °F °C ) Dew Point ( °F °C ) Humidity (%) Winds ( mph kmh ) Pressure ( in mb ) Visibility ( mi km ) Precip ( " mm )
12:09 am 00:09 Mostly Cloudy 55 12.8 52 11.1 90 90 SSW 14 22 29.77 1008 10 16 0.00 0.00
12:53 am 00:53 Mostly Clear 54 12.2 51 10.6 90 90 SSW 10 17 29.76 1008 10 16 0.00 0.00
1:53 am 01:53 Cloudy 54 12.2 50 10 87 87 SSW 8 13 29.77 1008 10 16 0.00 0.00
2:53 am 02:53 Mostly Cloudy 54 12.2 41 5 62 62 WNW 9 15 29.80 1009 10 16 0.00 0.00
3:53 am 03:53 Cloudy 52 11.1 39 3.9 61 61 SW 7 11 29.81 1009 10 16 0.00 0.00
4:53 am 04:53 Cloudy 52 11.1 38 3.3 59 59 WSW 10 17 29.83 1010 10 16 0.00 0.00
5:53 am 05:53 Cloudy 51 10.6 32 0 48 48 W 14 22 29.83 1010 10 16 0.00 0.00
6:53 am 06:53 Mostly Clear 48 8.9 34 1.1 58 58 S 7 11 29.85 1011 10 16 0.00 0.00
7:53 am 07:53 Mostly Sunny 48 8.9 33 0.6 56 56 Calm 29.87 1012 10 16 0.00 0.00
8:53 am 08:53 Mostly Sunny 46 7.8 37 2.8 71 71 SSE 8 13 29.91 1013 10 16 0.00 0.00
9:53 am 09:53 Cloudy 48 8.9 41 5 77 77 SSW 5 7 29.93 1013 10 16 0.00 0.00
10:53 am 10:53 Cloudy 49 9.4 40 4.4 71 71 WSW 3 6 29.96 1015 10 16 0.00 0.00
11:53 am 11:53 Cloudy 50 10 42 5.6 74 74 SSW 15 24 29.93 1014 10 16 0.00 0.00
12:53 pm 12:53 Mostly Cloudy 51 10.6 42 5.6 71 71 S 18 30 29.89 1012 10 16 0.00 0.00
1:53 pm 13:53 Cloudy with Light Rain 51 10.6 43 6.1 74 74 S 17 28 29.89 1012 10 16 0.00 0.00
2:53 pm 14:53 Cloudy with Light Rain 52 11.1 43 6.1 72 72 S 21 33 29.89 1012 10 16 0.00 0.00
3:53 pm 15:53 Mostly Cloudy 50 10 44 6.7 80 80 S 15 24 29.88 1012 10 16 0.00 0.00
4:53 pm 16:53 Mostly Sunny 49 9.4 43 6.1 80 80 S 16 26 29.87 1012 10 16 0.00 0.00
5:53 pm 17:53 Mostly Cloudy 49 9.4 43 6.1 80 80 S 20 31 29.86 1011 10 16 0.00 0.00
6:53 pm 18:53 Cloudy 49 9.4 45 7.2 86 86 S 13 20 29.87 1011 10 16 0.00 0.00
7:53 pm 19:53 Cloudy 50 10 45 7.2 83 83 S 17 28 29.85 1011 10 16 0.00 0.00
8:39 pm 20:39 Cloudy 50 10 46 7.8 86 86 S 14 22 29.88 1012 10 16 0.00 0.00
8:53 pm 20:53 Cloudy 50 10 46 7.8 86 86 SSW 16 26 29.86 1011 10 16 0.00 0.00
9:45 pm 21:45 Cloudy 50 10 46 7.8 86 86 SSW 20 31 29.91 1013 10 16 0.00 0.00
9:53 pm 21:53 Cloudy with Light Rain 50 10 46 7.8 86 86 SSW 17 28 29.88 1012 10 16 0.00 0.00
10:17 pm 22:17 Cloudy 50 10 46 7.8 86 86 SSW 15 24 29.91 1013 10 16 0.00 0.00
10:53 pm 22:53 Cloudy 49 9.4 46 7.8 90 90 SSW 16 26 29.87 1012 10 16 0.00 0.00
11:53 pm 23:53 Cloudy 47 8.3 44 6.7 90 90 undefined N/A 29.88 1012 10 16 0.00 0.00

Powered by AerisWeather